EN

Hourly Weather Tornio

Today, 13 April, Tuesday

Time Temperature Precipitation Wind Pressure Humidity
00:00 -2°C° 0.6 mm 5 mps 761 mmHg 97%
01:00 -2°C° 0.6 mm 5 mps 761 mmHg 97%
02:00 -2°C° 0.6 mm 5 mps 760 mmHg 96%
03:00 -2°C° 0.4 mm 5 mps 760 mmHg 96%
04:00 -2°C° 0.4 mm 5 mps 759 mmHg 96%
05:00 -2°C° 0.4 mm 5 mps 759 mmHg 96%
06:00 -2°C° 0.4 mm 5 mps 759 mmHg 96%
07:00 -2°C° 0.4 mm 5 mps 759 mmHg 96%
08:00 -2°C° 0.4 mm 4 mps 759 mmHg 96%
09:00 -1°C° 0.4 mm 4 mps 759 mmHg 96%
10:00 0°C° 0.4 mm 3 mps 759 mmHg 97%
11:00 0°C° 0.4 mm 3 mps 759 mmHg 97%
12:00 +1°C° 0.4 mm 2 mps 759 mmHg 98%
13:00 +1°C° 0.4 mm 2 mps 759 mmHg 98%
14:00 +2°C° 0.4 mm 1 mps 759 mmHg 99%
15:00 +1°C° 0.1 mm 2 mps 759 mmHg 98%
16:00 0°C° 0.1 mm 3 mps 759 mmHg 98%
17:00 -1°C° 0.1 mm 4 mps 759 mmHg 97%
18:00 -2°C° 0 mm 4 mps 759 mmHg 95%
19:00 -1°C° 0 mm 3 mps 759 mmHg 94%
20:00 -1°C° 0 mm 3 mps 759 mmHg 92%
21:00 -2°C° 0 mm 3 mps 759 mmHg 93%
22:00 -2°C° 0 mm 3 mps 759 mmHg 93%
23:00 -2°C° 0 mm 2 mps 759 mmHg 94%

Tomorrow, 14 April, Wednesday

Time Temperature Precipitation Wind Pressure Humidity
00:00 -2°C° 0.1 mm 2 mps 759 mmHg 95%
01:00 -2°C° 0.1 mm 2 mps 759 mmHg 96%
02:00 -2°C° 0.1 mm 2 mps 759 mmHg 97%
03:00 -3°C° 0 mm 2 mps 759 mmHg 97%
04:00 -3°C° 0 mm 2 mps 759 mmHg 96%
05:00 -4°C° 0 mm 2 mps 759 mmHg 96%
06:00 -3°C° 0 mm 2 mps 759 mmHg 91%
07:00 -3°C° 0 mm 2 mps 760 mmHg 86%
08:00 -2°C° 0 mm 2 mps 760 mmHg 81%
09:00 -1°C° 0 mm 3 mps 760 mmHg 76%
10:00 0°C° 0 mm 3 mps 761 mmHg 71%
11:00 +1°C° 0 mm 3 mps 761 mmHg 66%
12:00 0°C° 0 mm 4 mps 762 mmHg 67%
13:00 +1°C° 0 mm 4 mps 762 mmHg 68%
14:00 +1°C° 0 mm 4 mps 763 mmHg 69%
15:00 +2°C° 0 mm 3 mps 763 mmHg 70%
16:00 +2°C° 0 mm 3 mps 763 mmHg 71%
17:00 +3°C° 0 mm 2 mps 764 mmHg 73%
18:00 +2°C° 0 mm 2 mps 764 mmHg 79%
19:00 +1°C° 0 mm 1 mps 765 mmHg 85%
20:00 -1°C° 0 mm 1 mps 766 mmHg 91%
21:00 -1°C° 0 mm 1 mps 766 mmHg 91%
22:00 -1°C° 0 mm 1 mps 766 mmHg 92%
23:00 -2°C° 0 mm 1 mps 767 mmHg 92%

Day after tomorrow, 15 April, Thursday

Time Temperature Precipitation Wind Pressure Humidity
00:00 -2°C° 0 mm 1 mps 767 mmHg 92%
01:00 -2°C° 0 mm 1 mps 767 mmHg 93%
02:00 -2°C° 0 mm 1 mps 767 mmHg 93%
03:00 -4°C° 0 mm 2 mps 767 mmHg 92%
04:00 -4°C° 0 mm 2 mps 767 mmHg 91%
05:00 -4°C° 0 mm 2 mps 768 mmHg 90%
06:00 -3°C° 0 mm 2 mps 768 mmHg 85%
07:00 -2°C° 0 mm 2 mps 768 mmHg 80%
08:00 +1°C° 0 mm 2 mps 768 mmHg 75%
09:00 0°C° 0 mm 3 mps 768 mmHg 74%
10:00 +1°C° 0 mm 3 mps 768 mmHg 73%
11:00 +1°C° 0 mm 4 mps 768 mmHg 71%
12:00 +3°C° 0 mm 3 mps 768 mmHg 72%
13:00 +4°C° 0 mm 3 mps 768 mmHg 72%
14:00 +4°C° 0 mm 3 mps 769 mmHg 73%
15:00 +4°C° 0 mm 3 mps 769 mmHg 75%
16:00 +5°C° 0 mm 2 mps 769 mmHg 78%
17:00 +5°C° 0 mm 2 mps 769 mmHg 80%
18:00 +4°C° 0 mm 2 mps 770 mmHg 84%
19:00 +2°C° 0 mm 2 mps 770 mmHg 88%
20:00 +1°C° 0 mm 2 mps 771 mmHg 91%
21:00 -1°C° 0 mm 2 mps 771 mmHg 92%
22:00 -1°C° 0 mm 2 mps 772 mmHg 92%
23:00 0°C° 0 mm 1 mps 772 mmHg 93%

16 April, Friday

Time Temperature Precipitation Wind Pressure Humidity
00:00 0°C° 0 mm 1 mps 773 mmHg 93%
01:00 0°C° 0 mm 1 mps 773 mmHg 94%
02:00 0°C° 0 mm 1 mps 774 mmHg 94%
03:00 0°C° 0 mm 1 mps 774 mmHg 94%
04:00 0°C° 0 mm 1 mps 774 mmHg 94%
05:00 -1°C° 0 mm 1 mps 775 mmHg 94%
06:00 +1°C° 0 mm 1 mps 775 mmHg 88%
07:00 +3°C° 0 mm 1 mps 776 mmHg 82%
08:00 +4°C° 0 mm 1 mps 776 mmHg 76%
09:00 +5°C° 0 mm 1 mps 777 mmHg 72%
10:00 +5°C° 0 mm 0 mps 777 mmHg 68%
11:00 +6°C° 0 mm 0 mps 777 mmHg 65%
12:00 +8°C° 0 mm 1 mps 778 mmHg 64%
13:00 +8°C° 0 mm 1 mps 778 mmHg 62%
14:00 +8°C° 0 mm 1 mps 778 mmHg 61%
15:00 +8°C° 0 mm 1 mps 778 mmHg 65%
16:00 +8°C° 0 mm 1 mps 778 mmHg 69%
17:00 +8°C° 0 mm 1 mps 778 mmHg 74%
18:00 +5°C° 0 mm 0 mps 779 mmHg 77%
19:00 +4°C° 0 mm 0 mps 779 mmHg 81%
20:00 +2°C° 0 mm 0 mps 779 mmHg 85%
21:00 +2°C° 0 mm 0 mps 779 mmHg 86%
22:00 +2°C° 0 mm 1 mps 779 mmHg 86%
23:00 +2°C° 0 mm 1 mps 780 mmHg 87%

17 April, Saturday

Time Temperature Precipitation Wind Pressure Humidity
00:00 +2°C° 0 mm 1 mps 780 mmHg 87%
01:00 +1°C° 0 mm 1 mps 780 mmHg 87%
02:00 +1°C° 0 mm 1 mps 780 mmHg 87%
03:00 +1°C° 0 mm 1 mps 780 mmHg 87%
04:00 +1°C° 0 mm 1 mps 779 mmHg 87%
05:00 +1°C° 0 mm 1 mps 779 mmHg 86%
06:00 +1°C° 0 mm 2 mps 779 mmHg 84%
07:00 +2°C° 0 mm 2 mps 779 mmHg 81%
08:00 +3°C° 0 mm 2 mps 779 mmHg 79%
09:00 +4°C° 0 mm 2 mps 779 mmHg 76%
10:00 +4°C° 0 mm 3 mps 778 mmHg 73%
11:00 +4°C° 0 mm 3 mps 778 mmHg 71%
12:00 +5°C° 0 mm 3 mps 778 mmHg 71%
13:00 +5°C° 0 mm 3 mps 778 mmHg 71%
14:00 +5°C° 0 mm 3 mps 778 mmHg 72%
15:00 +5°C° 0 mm 3 mps 777 mmHg 73%
16:00 +4°C° 0 mm 3 mps 777 mmHg 75%
17:00 +4°C° 0 mm 3 mps 776 mmHg 77%
18:00 +3°C° 0 mm 3 mps 776 mmHg 80%
19:00 +2°C° 0 mm 3 mps 776 mmHg 83%
20:00 +1°C° 0 mm 3 mps 776 mmHg 85%
21:00 +2°C° 0 mm 2 mps 775 mmHg 87%
22:00 +1°C° 0 mm 2 mps 775 mmHg 88%
23:00 +1°C° 0 mm 2 mps 775 mmHg 89%

18 April, Sunday

Time Temperature Precipitation Wind Pressure Humidity
00:00 +1°C° 0 mm 2 mps 775 mmHg 91%
01:00 +1°C° 0 mm 2 mps 775 mmHg 92%
02:00 -1°C° 0 mm 2 mps 774 mmHg 93%
03:00 -1°C° 0 mm 2 mps 774 mmHg 93%
04:00 -1°C° 0 mm 2 mps 774 mmHg 93%
05:00 -1°C° 0 mm 2 mps 774 mmHg 94%
06:00 +1°C° 0 mm 2 mps 774 mmHg 89%
07:00 +2°C° 0 mm 2 mps 774 mmHg 85%
08:00 +4°C° 0 mm 2 mps 774 mmHg 80%
09:00 +4°C° 0 mm 2 mps 774 mmHg 76%
10:00 +5°C° 0 mm 2 mps 774 mmHg 72%
11:00 +6°C° 0 mm 2 mps 774 mmHg 68%
12:00 +8°C° 0 mm 1 mps 774 mmHg 67%
13:00 +8°C° 0 mm 1 mps 774 mmHg 65%
14:00 +9°C° 0 mm 1 mps 774 mmHg 64%
15:00 +7°C° 0 mm 2 mps 774 mmHg 66%
16:00 +7°C° 0 mm 2 mps 774 mmHg 68%
17:00 +6°C° 0 mm 2 mps 774 mmHg 69%
18:00 +5°C° 0 mm 2 mps 774 mmHg 76%
19:00 +4°C° 0 mm 2 mps 774 mmHg 82%
20:00 +3°C° 0 mm 1 mps 774 mmHg 89%
21:00 +2°C° 0 mm 2 mps 774 mmHg 90%
22:00 +1°C° 0 mm 2 mps 773 mmHg 91%
23:00 +1°C° 0 mm 2 mps 773 mmHg 92%
Show more

We Need Your Consent

Meteoprog and our Service Providers may store and access personal data such as cookies, device identifiers or other similar technologies on your device and process such data to personalise content and ads, as well as provide social media features and to analyse the traffic.

  • Store and/or access information on your device

    Cookies, device identifiers or other information can be stored or accessed on your device for the purposes indicated above.

  • Personalised ads and content, ad and content measurement, audience insights, and products development

    Ads and content can be personalised based on a profile. More data can be added to better personalise ads and content. Ad and content performance can be measured. Insights about the audience who saw the ads and content can be derived. Such data can be used to develop or improve user’s experience, systems and software.

By clicking ‘I Agree’ you will allow the use of indicated cookies, device identifiers, web beacons or other similar technologies. Your settings can be changed in the browser on your device.

For certain purposes, legitimate interests may be relied on, rather than consent. You can read more about this in our Privacy and Cookie Policy.